Location: The D'Auria's Ocala Star Observatory
(29.0276°N, 82.1742°W)
Time: 00:55:00
(UTC-04:00)

Okean 3 Rocket - Visible Passes

Search period start: 30 June 2016 00:00
Search period end: 10 July 2016 00:00
Orbit: 616 x 644 km, 82.5° (Epoch: 29 June)

Date Brightness Start Highest point End Pass type
(mag) Time Alt. Az. Time Alt. Az. Time Alt. Az.
04 Jul 6.5 06:06:25 10° NNE 06:09:51 21° ENE 06:13:14 10° SE visible
07 Jul 6.6 05:31:55 10° NE 05:34:30 15° ENE 05:37:06 10° ESE visible
08 Jul 5.6 05:51:34 10° NNE 05:55:36 33° E 05:59:35 10° SE visible
09 Jul 3.8 06:12:07 10° N 06:16:35 77° E 06:20:58 10° S visible
